Location: Lac de la Montagne noire
(46.1952°N, 74.2701°W)
Time: 13:50:28
(UTC-04:00)

ISS - Pass Details

Date: 03 April 2019
Orbit: 408 x 410 km, 51.6° (Epoch: 26 April)

Event Time Altitude Azimuth Distance (km) Brightness Sun altitude
Rises 21:53:09 0° 293° (WNW) 2,337 1.3 -23.7°
Reaches altitude 10° 21:55:20 10° 285° (WNW) 1,473 -0.1 -24.0°
Enters shadow 21:57:10 26° 262° (W) 853 -1.8 -24.3°
